"Pseudo-MPEC" for C0VNEG5

Created 2024 Dec 1 12:31:07 UT using Find_Orb

Click here for an explanation of pseudo-MPECs

 
 Astrometry: 
     C0VNEG5* C2024 11 29.37657307 19 16.763+28 26 45.71   ~BT9l 21.57GVNEOCPV00
     C0VNEG5  C2024 11 29.38421307 19 18.084+28 28 27.59   ~BT9l 21.70GVNEOCPV00
     C0VNEG5  C2024 11 29.39081207 19 19.204+28 29 55.46   ~BT9l       VNEOCPV00
     C0VNEG5  C2024 11 29.39641807 19 20.150+28 31 10.49   ~BT9l       VNEOCPV00
     C0VNEG5 KC2024 11 29.46891307 19 32.560+28 47 16.40   ~BTC2 21.39GVNEOCPI52
     C0VNEG5 KC2024 11 29.47492607 19 33.650+28 48 36.00   ~BTC2       VNEOCPI52
     C0VNEG5 KC2024 11 29.47792207 19 34.200+28 49 15.00   ~BTC2 21.37GVNEOCPI52
     C0VNEG5 1C2024 11 30.03051007 21 29.927+30 52 53.30   ~BU9V 21.8 GXNEOCP033
     C0VNEG5 1C2024 11 30.03176007 21 30.197+30 53 10.40   ~BU9V 21.8 GXNEOCP033
     C0VNEG5 1C2024 11 30.03300007 21 30.398+30 53 27.10   ~BU9V 21.9 GXNEOCP033
     C0VNEG5 1C2024 11 30.03424007 21 30.647+30 53 43.50   ~BU9V 21.8 GXNEOCP033
     C0VNEG5  C2024 12 01.26127007 26 03.250+35 35 14.50   ~C172       VNEOCP291
     C0VNEG5  C2024 12 01.26909007 26 04.930+35 37 05.20   ~C172 21.7 RVNEOCP291

Station data:
(033) Karl Schwarzschild Observatory, Tautenburg  (N50.980139 E11.711240)
   Germany.  Observer B. Stecklum. 1.34-m f/3 Schmidt + CCD.
(291) LPL/Spacewatch II  (N31.961669 W111.599905)  US/Arizona.  Observers J.
   V. Scotti, R. S. McMillan. 1.8-m f/2.7 reflector + CCD.
(I52) Steward Observatory, Mt. Lemmon Station  (N32.442570 W110.788920)
   US/Arizona.  Observers T. A. Pruyne, B. M. Africano, E. J. Christensen, G.
   A. Farneth, D. C. Fuls, A. R. Gibbs, A. D. Grauer, H. Gröller, J. A.
   Johnson, R. A. Kowalski, S. M. Larson, G. J. Leonard, D. Rankin, R. L.
   Seaman, F. C. Shelly, K. W. Wierzchoś. 1.0-m prime focus + CCD.
(V00) Kitt Peak-Bok  (N31.963125 W111.600190)  US/Arizona.  Observers T. A.
   Pruyne, B. M. Africano, E. J. Christensen, G. A. Farneth, D. C. Fuls, A.
   R. Gibbs, A. D. Grauer, H. Gröller, J. A. Johnson, R. A. Kowalski, S. M.
   Larson, G. J. Leonard, D. Rankin, R. L. Seaman, F. C. Shelly, K. W.
   Wierzchoś. 2.25-m reflector + 4x4K mosaic CCD.

Orbital elements:  C0VNEG5
   Perihelion 2024 Dec 29.25646 +/- 0.333 TT =  6:09:18 (JD 2460673.75646)
Epoch 2024 Dec  1.0 TT = JDT 2460645.5   Earth MOID: 0.1011   Ma: 0.0595
M 342.02871881 +/- 0.41             (J2000 ecliptic)             AutoNEOCP
n   0.63600615 +/- 0.00718          Peri.   30.70045 +/- 0.31
a   1.33914776 +/- 0.0101           Node    70.16537 +/- 0.048
e   0.2064800 +/- 0.0051            Incl.   26.77608 +/- 0.29
P   1.550/566.022d         H 24.81  G  0.15   U  9.4
q 1.06264051 +/- 0.00117    Q 1.61565502 +/- 0.019
From 13 observations 2024 Nov. 29-Dec. 1 (45.4 hr); mean residual 0".30
Residuals in arcseconds: 
241129 V00  .02-  .05+    241129 I52  .06+  .38+    241130 033  .26+  .50-    
241129 V00  .04+  .10-    241129 I52  .44+  .44-    241201 291  .13-  .19-    
241129 V00  .16-  .34-    241130 033  .05+  .07+    241201 291  .09-  .25+    
241129 V00  .40-  .14-    241130 033  .49+  .16+    
241129 I52  .53-  .71+    241130 033  .07+  .02-    

Ephemerides (geocentric):
Date (UTC) HH   RA             Dec           delta  r     elong  mag " sig PA
---- --------  ------------   ------------  ------ ------ -----  --- --------
2024 12 01 13  07 27 04.514   +36 40 34.50  .12379 1.0829 139.3 21.9 .774  89
2024 12 01 14  07 27 14.379   +36 50 16.29  .12375 1.0828 139.3 21.9 .802  87
2024 12 01 15  07 27 24.280   +36 59 58.35  .12371 1.0828 139.3 21.9 .832  85
2024 12 01 16  07 27 34.217   +37 09 40.65  .12368 1.0827 139.3 21.9 .863  84
2024 12 01 17  07 27 44.190   +37 19 23.18  .12365 1.0827 139.2 21.9 .896  82
2024 12 01 18  07 27 54.199   +37 29 05.94  .12362 1.0826 139.2 21.9 .930  81
2024 12 01 19  07 28 04.245   +37 38 48.92  .12359 1.0826 139.2 21.9 .965  79
2024 12 01 20  07 28 14.327   +37 48 32.10  .12356 1.0825 139.2 21.9 1.00  78
2024 12 01 21  07 28 24.447   +37 58 15.47  .12353 1.0824 139.1 21.9 1.04  76
2024 12 01 22  07 28 34.604   +38 07 59.03  .12350 1.0824 139.1 21.9 1.08  75
2024 12 01 23  07 28 44.799   +38 17 42.75  .12348 1.0823 139.1 21.9 1.12  74
2024 12 02 00  07 28 55.031   +38 27 26.63  .12345 1.0823 139.1 21.9 1.16  72
2024 12 02 01  07 29 05.302   +38 37 10.67  .12343 1.0822 139.1 21.9 1.20  71
2024 12 02 02  07 29 15.611   +38 46 54.84  .12340 1.0821 139.0 21.9 1.25  70
2024 12 02 03  07 29 25.959   +38 56 39.13  .12338 1.0821 139.0 21.9 1.29  69
2024 12 02 04  07 29 36.346   +39 06 23.54  .12336 1.0820 139.0 21.9 1.34  68
2024 12 02 05  07 29 46.772   +39 16 08.06  .12334 1.0820 138.9 21.9 1.39  67
2024 12 02 06  07 29 57.238   +39 25 52.67  .12332 1.0819 138.9 21.9 1.44  66
2024 12 02 07  07 30 07.743   +39 35 37.36  .12331 1.0818 138.9 21.9 1.49  65
2024 12 02 08  07 30 18.289   +39 45 22.12  .12329 1.0818 138.9 21.9 1.54  64
2024 12 02 09  07 30 28.875   +39 55 06.94  .12327 1.0817 138.8 21.9 1.59  63
2024 12 02 10  07 30 39.501   +40 04 51.81  .12326 1.0817 138.8 21.9 1.65  62
2024 12 02 11  07 30 50.169   +40 14 36.71  .12325 1.0816 138.8 21.9 1.70  62
2024 12 02 12  07 31 00.878   +40 24 21.64  .12324 1.0816 138.7 21.9 1.76  61
2024 12 02 13  07 31 11.628   +40 34 06.59  .12322 1.0815 138.7 21.9 1.82  60
2024 12 02 14  07 31 22.420   +40 43 51.54  .12321 1.0814 138.7 21.9 1.88  59
2024 12 02 15  07 31 33.254   +40 53 36.48  .12321 1.0814 138.6 21.9 1.94  59
2024 12 02 16  07 31 44.131   +41 03 21.40  .12320 1.0813 138.6 21.9 2.00  58
2024 12 02 17  07 31 55.050   +41 13 06.29  .12319 1.0813 138.6 21.9 2.06  57
2024 12 02 18  07 32 06.013   +41 22 51.13  .12319 1.0812 138.5 21.9 2.13  57
2024 12 02 19  07 32 17.018   +41 32 35.93  .12318 1.0812 138.5 21.9 2.19  56
2024 12 02 20  07 32 28.068   +41 42 20.66  .12318 1.0811 138.5 21.9 2.26  56
2024 12 02 21  07 32 39.161   +41 52 05.31  .12318 1.0810 138.4 21.9 2.33  55
2024 12 02 22  07 32 50.299   +42 01 49.88  .12318 1.0810 138.4 21.9 2.40  55
2024 12 02 23  07 33 01.481   +42 11 34.35  .12318 1.0809 138.3 21.9 2.47  54
2024 12 03 00  07 33 12.709   +42 21 18.71  .12318 1.0809 138.3 21.9 2.54  54
2024 12 03 01  07 33 23.981   +42 31 02.95  .12318 1.0808 138.3 21.9 2.61  53
2024 12 03 02  07 33 35.300   +42 40 47.05  .12318 1.0808 138.2 21.9 2.68  53
2024 12 03 03  07 33 46.664   +42 50 31.01  .12319 1.0807 138.2 21.9 2.76  52
2024 12 03 04  07 33 58.074   +43 00 14.82  .12319 1.0806 138.1 21.9 2.83  52
2024 12 03 05  07 34 09.532   +43 09 58.46  .12320 1.0806 138.1 21.9 2.91  51
2024 12 03 06  07 34 21.036   +43 19 41.93  .12320 1.0805 138.1 21.9 2.99  51
2024 12 03 07  07 34 32.587   +43 29 25.20  .12321 1.0805 138.0 21.9 3.06  51
2024 12 03 08  07 34 44.186   +43 39 08.28  .12322 1.0804 138.0 21.9 3.14  50
2024 12 03 09  07 34 55.833   +43 48 51.14  .12323 1.0804 137.9 21.9 3.23  50
2024 12 03 10  07 35 07.529   +43 58 33.79  .12325 1.0803 137.9 21.9 3.31  50
2024 12 03 11  07 35 19.273   +44 08 16.20  .12326 1.0803 137.8 21.9 3.39  49
2024 12 03 12  07 35 31.067   +44 17 58.36  .12327 1.0802 137.8 22.0 3.47  49